Location: Lawrence Hall of Science
(37.8785°N, 122.2415°W)
Time: 15:10:42
(UTC-07:00)

Cosmos 1461 - Visible Passes

Search period start: 21 September 2014 00:00
Search period end: 01 October 2014 00:00
Orbit: 535 x 666 km, 65.0° (Epoch: 20 September)

Date Brightness Start Highest point End Pass type
(mag) Time Alt. Az. Time Alt. Az. Time Alt. Az.
21 Sep 2.8 20:02:21 10° NNW 20:06:27 70° ENE 20:10:18 12° SE visible
22 Sep 3.5 20:13:49 10° NW 20:17:51 57° WSW 20:22:02 10° SSE visible
23 Sep 4.8 20:25:36 10° NW 20:29:10 28° WSW 20:32:50 10° S visible
24 Sep 5.8 20:38:05 10° WNW 20:40:24 15° WSW 20:42:46 10° SW visible
26 Sep 4.3 19:20:10 10° NW 19:24:06 43° WSW 19:28:09 10° S visible
27 Sep 5.6 19:32:07 10° WNW 19:35:21 22° WSW 19:38:40 10° SSW visible
28 Sep 6.3 19:45:16 10° W 19:46:31 11° WSW 19:47:47 10° SW visible
